When you browse on this site, cookies collect data to enhance your experience and personalize the content and advertising you see.
Visit our Privacy Policy to learn more. By continuing to use the site, you agree to this use of cookies and data.
  • In France
  • List of Countries
  • For 7 days
  • Water Temperature
  • Satellite Maps
  • Weather Map
  • Weather Widgets
  • user-avatar
    Login

    Hourly Weather Dyatlovo

    Today, 19 February, Tuesday

    Time Temperature Precipitation Wind Pressure Humidity
    00:00 -9°C° 0 mm 1 mps 748 mmHg 92%
    01:00 -10°C° 0 mm 2 mps 748 mmHg 91%
    02:00 -10°C° 0 mm 2 mps 748 mmHg 91%
    03:00 -12°C° 0 mm 3 mps 747 mmHg 89%
    04:00 -10°C° 0 mm 3 mps 746 mmHg 87%
    05:00 -11°C° 0 mm 4 mps 746 mmHg 85%
    06:00 -11°C° 0 mm 5 mps 745 mmHg 83%
    07:00 -10°C° 0 mm 5 mps 745 mmHg 81%
    08:00 -10°C° 0 mm 5 mps 744 mmHg 79%
    09:00 -8°C° 0 mm 6 mps 744 mmHg 75%
    10:00 -6°C° 0 mm 6 mps 743 mmHg 72%
    11:00 -5°C° 0 mm 6 mps 743 mmHg 69%
    12:00 -4°C° 0 mm 6 mps 742 mmHg 69%
    13:00 -4°C° 0 mm 6 mps 742 mmHg 70%
    14:00 -2°C° 0 mm 5 mps 741 mmHg 71%
    15:00 -4°C° 0 mm 5 mps 741 mmHg 73%
    16:00 -4°C° 0 mm 5 mps 740 mmHg 75%
    17:00 -4°C° 0 mm 4 mps 740 mmHg 77%
    18:00 -4°C° 0 mm 4 mps 739 mmHg 78%
    19:00 -5°C° 0 mm 5 mps 739 mmHg 80%
    20:00 -5°C° 0 mm 5 mps 738 mmHg 81%
    21:00 -5°C° 0 mm 5 mps 738 mmHg 83%
    22:00 -5°C° 0 mm 5 mps 737 mmHg 86%
    23:00 -5°C° 0 mm 5 mps 736 mmHg 88%

    Tomorrow, 20 February, Wednesday

    Time Temperature Precipitation Wind Pressure Humidity
    00:00 -5°C° 0 mm 5 mps 736 mmHg 88%
    01:00 -4°C° 0 mm 5 mps 735 mmHg 88%
    02:00 -3°C° 0 mm 6 mps 735 mmHg 88%
    03:00 -3°C° 0 mm 6 mps 734 mmHg 88%
    04:00 -3°C° 0 mm 6 mps 733 mmHg 88%
    05:00 -2°C° 0 mm 5 mps 732 mmHg 88%
    06:00 -1°C° 0.1 mm 5 mps 732 mmHg 89%
    07:00 -1°C° 0.1 mm 5 mps 732 mmHg 90%
    08:00 -1°C° 0.1 mm 5 mps 732 mmHg 91%
    09:00 0°C° 0 mm 5 mps 732 mmHg 91%
    10:00 0°C° 0 mm 5 mps 732 mmHg 91%
    11:00 0°C° 0 mm 5 mps 732 mmHg 91%
    12:00 0°C° 0 mm 5 mps 732 mmHg 91%
    13:00 0°C° 0 mm 5 mps 732 mmHg 91%
    14:00 0°C° 0 mm 5 mps 732 mmHg 91%
    15:00 0°C° 0.1 mm 4 mps 732 mmHg 91%
    16:00 0°C° 0.1 mm 4 mps 731 mmHg 91%
    17:00 -1°C° 0.1 mm 4 mps 731 mmHg 92%
    18:00 -1°C° 0 mm 4 mps 731 mmHg 91%
    19:00 -1°C° 0 mm 4 mps 731 mmHg 91%
    20:00 -1°C° 0 mm 4 mps 731 mmHg 90%
    21:00 -1°C° 0.1 mm 4 mps 730 mmHg 90%
    22:00 -1°C° 0.1 mm 4 mps 730 mmHg 90%
    23:00 -1°C° 0.1 mm 4 mps 729 mmHg 91%

    Day after tomorrow, 21 February, Thursday

    Time Temperature Precipitation Wind Pressure Humidity
    00:00 -1°C° 0.6 mm 4 mps 729 mmHg 91%
    01:00 -1°C° 0.6 mm 4 mps 729 mmHg 92%
    02:00 -2°C° 0.6 mm 4 mps 729 mmHg 92%
    03:00 -2°C° 0.4 mm 4 mps 729 mmHg 92%
    04:00 -3°C° 0.4 mm 4 mps 729 mmHg 91%
    05:00 -4°C° 0.4 mm 4 mps 729 mmHg 91%
    06:00 -4°C° 0.1 mm 3 mps 729 mmHg 91%
    07:00 -4°C° 0.1 mm 3 mps 730 mmHg 90%
    08:00 -4°C° 0.1 mm 3 mps 730 mmHg 90%
    09:00 -4°C° 0.1 mm 4 mps 730 mmHg 90%
    10:00 -4°C° 0.1 mm 5 mps 730 mmHg 89%
    11:00 -4°C° 0.1 mm 5 mps 731 mmHg 88%
    12:00 -4°C° 0.1 mm 5 mps 731 mmHg 87%
    13:00 -5°C° 0.1 mm 5 mps 732 mmHg 87%
    14:00 -5°C° 0.1 mm 5 mps 732 mmHg 87%
    15:00 -6°C° 0.2 mm 6 mps 733 mmHg 87%
    16:00 -6°C° 0.2 mm 6 mps 733 mmHg 87%
    17:00 -7°C° 0.2 mm 7 mps 734 mmHg 87%
    18:00 -8°C° 0.2 mm 7 mps 735 mmHg 86%
    19:00 -9°C° 0.2 mm 7 mps 736 mmHg 85%
    20:00 -11°C° 0.2 mm 7 mps 737 mmHg 84%
    21:00 -12°C° 0.1 mm 7 mps 738 mmHg 83%
    22:00 -12°C° 0.1 mm 7 mps 739 mmHg 82%
    23:00 -13°C° 0.1 mm 7 mps 740 mmHg 81%

    22 February, Friday

    Time Temperature Precipitation Wind Pressure Humidity
    00:00 -13°C° 0.1 mm 7 mps 740 mmHg 80%
    01:00 -14°C° 0.1 mm 7 mps 741 mmHg 79%
    02:00 -15°C° 0.1 mm 7 mps 742 mmHg 78%
    03:00 -17°C° 0 mm 7 mps 743 mmHg 77%
    04:00 -17°C° 0 mm 7 mps 743 mmHg 76%
    05:00 -18°C° 0 mm 7 mps 744 mmHg 75%
    06:00 -17°C° 0 mm 7 mps 744 mmHg 75%
    07:00 -17°C° 0 mm 7 mps 745 mmHg 76%
    08:00 -17°C° 0 mm 7 mps 746 mmHg 76%
    09:00 -15°C° 0 mm 7 mps 746 mmHg 74%
    10:00 -15°C° 0 mm 7 mps 746 mmHg 73%
    11:00 -14°C° 0 mm 7 mps 747 mmHg 71%
    12:00 -13°C° 0 mm 7 mps 747 mmHg 70%
    13:00 -13°C° 0 mm 8 mps 747 mmHg 69%
    14:00 -12°C° 0 mm 8 mps 747 mmHg 68%
    15:00 -13°C° 0 mm 7 mps 747 mmHg 70%
    16:00 -13°C° 0 mm 7 mps 748 mmHg 71%
    17:00 -14°C° 0 mm 6 mps 748 mmHg 73%
    18:00 -14°C° 0 mm 6 mps 749 mmHg 74%
    19:00 -15°C° 0 mm 6 mps 749 mmHg 76%
    20:00 -15°C° 0 mm 6 mps 750 mmHg 77%
    21:00 -16°C° 0 mm 6 mps 750 mmHg 78%
    22:00 -16°C° 0 mm 6 mps 751 mmHg 79%
    23:00 -15°C° 0 mm 5 mps 751 mmHg 79%

    23 February, Saturday

    Time Temperature Precipitation Wind Pressure Humidity
    00:00 -15°C° 0 mm 5 mps 752 mmHg 80%
    01:00 -15°C° 0 mm 5 mps 752 mmHg 81%
    02:00 -15°C° 0 mm 5 mps 753 mmHg 82%
    03:00 -15°C° 0 mm 5 mps 753 mmHg 83%
    04:00 -17°C° 0 mm 5 mps 753 mmHg 84%
    05:00 -17°C° 0 mm 5 mps 753 mmHg 85%
    06:00 -16°C° 0 mm 4 mps 753 mmHg 86%
    07:00 -16°C° 0 mm 4 mps 753 mmHg 86%
    08:00 -16°C° 0 mm 4 mps 754 mmHg 87%
    09:00 -16°C° 0 mm 4 mps 754 mmHg 85%
    10:00 -15°C° 0 mm 4 mps 754 mmHg 82%
    11:00 -15°C° 0 mm 4 mps 754 mmHg 80%
    12:00 -14°C° 0 mm 4 mps 754 mmHg 78%
    13:00 -12°C° 0 mm 3 mps 754 mmHg 76%
    14:00 -12°C° 0 mm 3 mps 754 mmHg 74%
    15:00 -13°C° 0 mm 3 mps 754 mmHg 78%
    16:00 -12°C° 0 mm 2 mps 754 mmHg 82%
    17:00 -13°C° 0 mm 2 mps 755 mmHg 86%
    18:00 -14°C° 0 mm 2 mps 755 mmHg 88%
    19:00 -14°C° 0 mm 2 mps 755 mmHg 90%
    20:00 -14°C° 0 mm 2 mps 756 mmHg 92%
    21:00 -13°C° 0 mm 1 mps 756 mmHg 93%
    22:00 -13°C° 0 mm 1 mps 757 mmHg 94%
    23:00 -13°C° 0 mm 1 mps 757 mmHg 95%

    24 February, Sunday

    Time Temperature Precipitation Wind Pressure Humidity
    00:00 -13°C° 0 mm 1 mps 757 mmHg 95%
    01:00 -13°C° 0 mm 1 mps 758 mmHg 95%
    02:00 -14°C° 0 mm 1 mps 758 mmHg 94%
    03:00 -14°C° 0 mm 1 mps 758 mmHg 94%
    04:00 -14°C° 0 mm 1 mps 758 mmHg 94%
    05:00 -14°C° 0 mm 0 mps 758 mmHg 93%
    06:00 -13°C° 0 mm 0 mps 758 mmHg 92%
    07:00 -13°C° 0 mm 0 mps 759 mmHg 91%
    08:00 -12°C° 0 mm 1 mps 759 mmHg 90%
    09:00 -11°C° 0 mm 1 mps 759 mmHg 86%
    10:00 -9°C° 0 mm 1 mps 759 mmHg 81%
    11:00 -7°C° 0 mm 1 mps 759 mmHg 76%
    12:00 -7°C° 0 mm 1 mps 758 mmHg 76%
    13:00 -7°C° 0 mm 2 mps 758 mmHg 75%
    14:00 -6°C° 0 mm 2 mps 757 mmHg 75%
    15:00 -7°C° 0 mm 2 mps 757 mmHg 78%
    16:00 -8°C° 0 mm 2 mps 756 mmHg 82%
    17:00 -9°C° 0 mm 2 mps 756 mmHg 85%
    18:00 -10°C° 0 mm 3 mps 755 mmHg 85%
    19:00 -12°C° 0 mm 3 mps 754 mmHg 84%
    20:00 -12°C° 0 mm 3 mps 754 mmHg 83%
    21:00 -11°C° 0 mm 4 mps 753 mmHg 81%
    22:00 -11°C° 0 mm 4 mps 752 mmHg 78%
    23:00 -12°C° 0 mm 5 mps 751 mmHg 76%
    Show more